sat.trackr.live / text

‹ back to catalog

ONEWEB-0351

NORAD 49215 · 2021-083AF

PAYLOAD ACTIVE UNKNOWN

§ Identity

Operator
Country
UK
Launch date
2021-09-14
Launch site
TYMSC
Launch vehicle
Mass (kg)
RCS (m²)

Purposes: comms

External: N2YO · Heavens-Above · Gunter

§ Orbital elements

Epoch: 2026-09-09T22:54:04.132800Z

Period
109.03 min
Inclination
87.9139°
Eccentricity
0.0001740
Mean motion
13.20770648 rev/d
Perigee alt
1,180.5 km
Apogee alt
1,183.1 km
Semi-major
7,559.9 km
B*
2.2628e-4
RAAN
257.5324°
Arg perigee
72.6950°
Mean anomaly
287.4373°
Rev number
24,796

§ Raw data

ONEWEB-03511 49215U 21083AF  26252.95421450  .00000105  00000+0  22628-3 0  99902 49215  87.9139 257.5324 0001740  72.6950 287.4373 13.20770648247969

JSON: /api/v1/satellites/49215 · /tle

For live sub-satellite position, see the globe view (requires WebGL).

§ Visibility from observer

Set your observer location to see the next 7 days of passes ≥ 10°. The values pass through the URL so the page stays shareable.

No JS? Fill the form by hand. The geolocation button needs JavaScript.